Flag for U.S.A. Weather past 2 weeks in Santa Barbara, California, U.S.A.

52 °F


Feels Like: 49 °F
Forecast: 45 / 62 °F
Wind: 9 mph from Northwest

Location: Santa Barbara Municipal Airport

Current Time: Nov 25, 2015 at 4:47:30 AM

Latest Report: Nov 25, 2015 at 3:53 AM

Visibility: 10 mi

Pressure: 29.88 "Hg

Humidity: 57%

Dew point: 37 °F

Location of Santa BarbaraLocation

Historic Weather in Santa Barbara — Graph


Santa Barbara temperature yesterday

Maximum temperature yesterday: 66 °F (at 3:53 PM)
Minimum temperature yesterday: 50 °F (at 1:53 AM)
Average temperature yesterday: 58 °F

Past Weeks' High & Low Weather Summary

High84 °F (Nov 22, 1:53 PM)93% (Nov 20, 6:53 PM)30.30 "Hg (Nov 20, 6:53 PM)
Low39 °F (Nov 12, 3:53 AM)9% (Nov 22, 2:53 PM)29.86 "Hg (Nov 24, 3:53 PM)
Average58 °F53%29.99 "Hg
* Reported Nov 10 3:53 AM — Nov 25 3:53 AM, Santa Barbara, Weather by CustomWeather, © 2015

Note: Actual official high and low records may vary slightly from our data, if they occured in-between our weather recording intervals... More about our weather records


Santa Barbara weather history for previous 24 hours

Time TempWeatherWind HumidityBarometerVisibility
3:53 AM
Wed, Nov 25
52 °FClear.9 mph57%29.88 "Hg10 mi
2:53 AM53 °FPassing clouds.6 mph52%29.89 "Hg10 mi
1:53 AM54 °FClear.17 mph47%29.88 "Hg10 mi
12:53 AM55 °FClear.15 mph49%29.88 "Hg10 mi
11:53 PM
Tue, Nov 24
54 °FClear.10 mph47%29.88 "Hg10 mi
10:53 PM55 °FClear.3 mph55%29.89 "Hg10 mi
9:53 PM56 °FPassing clouds.7 mph53%29.89 "Hg10 mi
8:53 PM59 °FPassing clouds.12 mph64%29.88 "Hg10 mi
7:53 PM59 °FPassing clouds.5 mph69%29.88 "Hg10 mi
6:53 PM60 °FPassing clouds.8 mph67%29.87 "Hg10 mi
5:53 PM61 °FPassing clouds.10 mph62%29.87 "Hg10 mi
4:53 PM63 °FPassing clouds.8 mph56%29.86 "Hg10 mi
3:53 PM66 °FScattered clouds.6 mph56%29.86 "Hg10 mi
2:53 PM65 °FPassing clouds.7 mph59%29.88 "Hg10 mi
1:53 PM65 °FPassing clouds.8 mph63%29.89 "Hg10 mi
12:53 PM65 °FScattered clouds.8 mph61%29.91 "Hg10 mi
11:53 AM64 °FScattered clouds.5 mph65%29.94 "Hg10 mi
10:53 AM63 °FPartly sunny.7 mph68%29.97 "Hg10 mi
9:53 AM62 °FScattered clouds.6 mph70%29.97 "Hg10 mi
8:53 AM59 °FScattered clouds.5 mph81%29.96 "Hg8 mi
7:53 AM54 °FScattered clouds.5 mph80%29.96 "Hg9 mi
6:53 AM51 °FScattered clouds.6 mph89%29.94 "Hg7 mi
5:53 AM51 °FPassing clouds.5 mph89%29.94 "Hg10 mi
4:53 AM52 °FPassing clouds.6 mph86%29.92 "Hg10 mi
Weather by CustomWeather, © 2015

See weather overviewHow to use our weather pages